Location: Cheching
(60.0667°N, 164.2167°W)
Time: 22:08:15
(UTC+00:00)

NOAA 15 - Pass Details

Date: 31 January 2021
Orbit: 798 x 812 km, 98.7° (Epoch: 07 March)

Event Time Altitude Azimuth Distance (km) Brightness Sun altitude
Rises 06:29:53 0° 196° (SSW) 3,310 7.9 -24.8°
Reaches altitude 10° 06:32:29 10° 207° (SSW) 2,386 7.2 -25.1°
Maximum altitude 06:37:05 30° 268° (W) 1,428 6.5 -25.7°
Drops below altitude 10° 06:41:44 10° 329° (NNW) 2,408 7.6 -26.3°
Sets 06:44:23 0° 340° (NNW) 3,346 8.2 -26.6°
